Location: Kalisz
(51.7636°N, 18.0893°E)
Time: 20:36:47
(UTC+01:00)

ISS - Pass Details

Date: 31 January 2019
Orbit: 403 x 411 km, 51.6° (Epoch: 21 February)

Event Time Altitude Azimuth Distance (km) Brightness Sun altitude
Rises 19:47:20 0° 281° (WNW) 2,342 1.2 -29.9°
Reaches altitude 10° 19:49:26 10° 278° (W) 1,481 -0.1 -30.2°
Enters shadow 19:49:58 14° 276° (W) 1,268 -0.5 -30.3°
